Location: Carri�res
(48.9069°N, 2.1792°E)
Time: 04:49:53
(UTC+00:00)

Cosmos 1844 Rocket - Pass Details

Date: 17 January 2021
Orbit: 825 x 843 km, 71.0° (Epoch: 26 February)

Event Time Altitude Azimuth Distance (km) Brightness Sun altitude
Rises 17:18:59 0° 142° (SE) 3,390 5.7 -8.7°
Reaches altitude 10° 17:23:47 10° 106° (ESE) 2,462 4.6 -9.4°
Maximum altitude 17:24:54 11° 94° (E) 2,421 4.5 -9.6°
Enters shadow 17:25:28 10° 88° (E) 2,432 4.5 -9.7°
